This is the latest recevied weather packets stored in our database for station/object KJ4W. If no packets are shown the sender has not sent any weather packets the latest 10 day(s).
| Time | Temp. | Humidity | Pressure | Rain* | Wind** | Luminosity | Snow |
|---|---|---|---|---|---|---|---|
| 1777867127 | 16.67° C | 53% | 1014 hPa | 0 mm | - | - | - |
| 1777866225 | 16.11° C | 54% | 1014.1 hPa | 0 mm | - | - | - |
| 1777865325 | 16.11° C | 54% | 1014.4 hPa | 0 mm | - | - | - |
| 1777864426 | 16.11° C | 53% | 1014.4 hPa | 0 mm | - | - | - |
| 1777863526 | 16.11° C | 53% | 1014.2 hPa | 0 mm | - | - | - |
| 1777862625 | 16.11° C | 54% | 1014.1 hPa | 0 mm | - | - | - |
| 1777861725 | 16.11° C | 54% | 1014.2 hPa | 0 mm | - | - | - |
| 1777860826 | 16.11° C | 54% | 1014.4 hPa | 0 mm | - | - | - |
| 1777859926 | 16.11° C | 54% | 1014.3 hPa | 0 mm | - | - | - |
| 1777859025 | 16.11° C | 54% | 1014.5 hPa | 0 mm | - | - | - |
| 1777858125 | 16.67° C | 51% | 1014.4 hPa | 0 mm | - | - | - |
| 1777857224 | 17.22° C | 50% | 1014.3 hPa | 0 mm | - | - | - |
| 1777856326 | 17.78° C | 48% | 1014.4 hPa | 0 mm | - | - | - |
| 1777855425 | 18.33° C | 47% | 1014.4 hPa | 0 mm | - | - | - |
| 1777854526 | 18.33° C | 46% | 1014.5 hPa | 0 mm | - | - | - |
| 1777853624 | 18.89° C | 44% | 1014.4 hPa | 0 mm | - | - | - |
| 1777852726 | 19.44° C | 43% | 1014.5 hPa | 0 mm | - | - | - |
| 1777851825 | 19.44° C | 42% | 1014.6 hPa | 0 mm | - | - | - |
| 1777850925 | 19.44° C | 41% | 1014.7 hPa | 0 mm | - | - | - |
| 1777850024 | 20° C | 41% | 1015.1 hPa | 0 mm | - | - | - |
| 1777849126 | 20° C | 41% | 1015.3 hPa | 0 mm | - | - | - |
| 1777848226 | 20.56° C | 41% | 1015.4 hPa | 0 mm | - | - | - |
| 1777847325 | 20.56° C | 40% | 1015.7 hPa | 0 mm | - | - | - |
| 1777846424 | 20.56° C | 38% | 1015.9 hPa | 0 mm | - | - | - |
| 1777845525 | 20.56° C | 37% | 1016 hPa | 0 mm | - | - | - |
* Rain latest hour (hover to see other rain measurements)
** Current wind speed in m/s (hover to see current wind gust speed)